Time,TemperatureF,DewpointF,PressureIn,WindDirection,WindDirectionDegrees,WindSpeedMPH,WindSpeedGustMPH,Humidity,HourlyPrecipIn,Conditions,Clouds,dailyrainin,SoftwareType,DateUTC
2013-12-19 00:03:00,29.6,13.8,28.11,ENE,68,1.0,1.6,47,0.00,,,0.00,WSDL version 420,2013-12-19 05:03:00,
2013-12-19 00:08:00,29.6,13.8,28.11,ENE,68,0.0,1.1,47,0.00,,,0.00,WSDL version 420,2013-12-19 05:08:00,
2013-12-19 00:13:00,29.2,13.4,28.11,ENE,68,0.0,0.9,47,0.00,,,0.00,WSDL version 420,2013-12-19 05:13:00,
2013-12-19 00:18:00,28.6,12.8,28.11,ENE,68,0.0,0.0,47,0.00,,,0.00,WSDL version 420,2013-12-19 05:18:00,
2013-12-19 00:23:00,28.6,13.2,28.11,ENE,68,0.0,0.0,48,0.00,,,0.00,WSDL version 420,2013-12-19 05:23:00,
2013-12-19 00:28:00,28.8,13.4,28.11,ENE,68,0.0,0.0,48,0.00,,,0.00,WSDL version 420,2013-12-19 05:28:00,
2013-12-19 00:33:00,28.6,13.3,28.11,ENE,68,0.0,0.0,48,0.00,,,0.00,WSDL version 420,2013-12-19 05:33:00,
2013-12-19 00:38:00,28.9,13.5,28.11,ENE,68,0.0,0.0,48,0.00,,,0.00,WSDL version 420,2013-12-19 05:38:00,
2013-12-19 00:43:00,29.1,13.7,28.11,ENE,68,0.0,0.0,48,0.00,,,0.00,WSDL version 420,2013-12-19 05:43:00,
2013-12-19 00:48:00,28.9,13.5,28.11,ENE,68,0.0,0.0,48,0.00,,,0.00,WSDL version 420,2013-12-19 05:48:00,
2013-12-19 00:53:00,28.9,13.6,28.11,ENE,68,0.0,0.0,48,0.00,,,0.00,WSDL version 420,2013-12-19 05:53:00,
2013-12-19 00:58:00,28.8,13.4,28.11,ENE,68,0.0,0.0,48,0.00,,,0.00,WSDL version 420,2013-12-19 05:58:00,
2013-12-19 01:03:00,28.6,13.3,28.11,ENE,68,0.0,0.0,48,0.00,,,0.00,WSDL version 420,2013-12-19 06:03:00,
2013-12-19 01:08:00,28.8,13.4,28.11,ENE,68,0.0,0.0,48,0.00,,,0.00,WSDL version 420,2013-12-19 06:08:00,
2013-12-19 01:13:00,28.5,13.3,28.11,ENE,68,0.0,0.0,48,0.00,,,0.00,WSDL version 420,2013-12-19 06:13:00,
2013-12-19 01:18:00,28.6,13.3,28.11,ENE,68,0.0,0.0,48,0.00,,,0.00,WSDL version 420,2013-12-19 06:18:00,
2013-12-19 01:23:00,28.6,13.5,28.11,ENE,68,0.0,0.0,49,0.00,,,0.00,WSDL version 420,2013-12-19 06:23:00,
2013-12-19 01:28:00,28.5,13.6,28.11,ENE,68,0.0,0.0,49,0.00,,,0.00,WSDL version 420,2013-12-19 06:28:00,
2013-12-19 01:33:00,28.3,13.4,28.11,ENE,68,0.0,0.0,49,0.00,,,0.00,WSDL version 420,2013-12-19 06:33:00,
2013-12-19 01:38:00,28.0,13.1,28.11,ENE,68,0.0,0.0,49,0.00,,,0.00,WSDL version 420,2013-12-19 06:38:00,
2013-12-19 01:43:00,27.9,13.0,28.11,ENE,68,0.0,0.0,49,0.00,,,0.00,WSDL version 420,2013-12-19 06:43:00,
2013-12-19 01:48:00,27.3,12.5,28.11,ENE,68,0.0,0.0,49,0.00,,,0.00,WSDL version 420,2013-12-19 06:48:00,
2013-12-19 01:53:00,27.4,12.5,28.11,ENE,68,0.0,0.0,49,0.00,,,0.00,WSDL version 420,2013-12-19 06:53:00,
2013-12-19 01:59:00,27.2,12.8,28.11,ENE,68,0.0,0.0,50,0.00,,,0.00,WSDL version 420,2013-12-19 06:59:00,
2013-12-19 02:04:00,27.6,13.2,28.11,ENE,68,0.0,0.0,50,0.00,,,0.00,WSDL version 420,2013-12-19 07:04:00,
2013-12-19 02:10:00,28.0,13.5,28.11,ENE,68,0.0,0.0,50,0.00,,,0.00,WSDL version 420,2013-12-19 07:10:00,
2013-12-19 02:14:00,27.9,13.5,28.11,ENE,68,0.0,0.0,50,0.00,,,0.00,WSDL version 420,2013-12-19 07:14:00,
2013-12-19 02:19:00,27.8,13.3,28.11,ENE,68,0.0,0.0,50,0.00,,,0.00,WSDL version 420,2013-12-19 07:19:00,
2013-12-19 02:24:00,27.6,13.1,28.11,ENE,68,0.0,0.0,50,0.00,,,0.00,WSDL version 420,2013-12-19 07:24:00,
2013-12-19 02:29:00,27.6,13.2,28.11,ENE,68,0.0,0.0,50,0.00,,,0.00,WSDL version 420,2013-12-19 07:29:00,
2013-12-19 02:34:00,27.7,13.5,28.11,ENE,68,1.2,1.3,51,0.00,,,0.00,WSDL version 420,2013-12-19 07:34:00,
2013-12-19 02:39:00,27.8,13.3,28.11,ENE,68,0.0,1.3,50,0.00,,,0.00,WSDL version 420,2013-12-19 07:39:00,
2013-12-19 02:44:00,27.5,13.5,28.11,NNE,23,1.3,2.0,51,0.00,,,0.00,WSDL version 420,2013-12-19 07:44:00,
2013-12-19 02:49:00,27.3,13.3,28.11,NNE,23,2.0,2.0,51,0.00,,,0.00,WSDL version 420,2013-12-19 07:49:00,
2013-12-19 02:54:00,27.4,13.4,28.11,NE,45,0.0,2.0,51,0.00,,,0.00,WSDL version 420,2013-12-19 07:54:00,
2013-12-19 02:59:00,27.5,13.5,28.11,NE,45,0.0,2.0,51,0.00,,,0.00,WSDL version 420,2013-12-19 07:59:00,
2013-12-19 03:04:00,27.7,13.6,28.11,NE,45,0.0,0.0,51,0.00,,,0.00,WSDL version 420,2013-12-19 08:04:00,
2013-12-19 03:09:00,27.7,13.6,28.14,ENE,68,0.0,0.9,51,0.00,,,0.00,WSDL version 420,2013-12-19 08:09:00,
2013-12-19 03:14:00,27.7,13.7,28.14,ENE,68,0.0,1.3,51,0.00,,,0.00,WSDL version 420,2013-12-19 08:14:00,
2013-12-19 03:19:00,27.7,13.6,28.14,ENE,68,1.5,1.6,51,0.00,,,0.00,WSDL version 420,2013-12-19 08:19:00,
2013-12-19 03:24:00,27.7,13.5,28.11,ENE,68,1.6,1.6,50,0.00,,,0.00,WSDL version 420,2013-12-19 08:24:00,
2013-12-19 03:29:00,27.5,13.3,28.11,ENE,68,1.4,1.6,51,0.00,,,0.00,WSDL version 420,2013-12-19 08:29:00,
2013-12-19 03:34:00,27.2,13.2,28.11,ENE,68,0.0,1.6,51,0.00,,,0.00,WSDL version 420,2013-12-19 08:34:00,
2013-12-19 03:39:00,27.1,13.1,28.11,ENE,68,0.0,1.6,51,0.00,,,0.00,WSDL version 420,2013-12-19 08:39:00,
2013-12-19 03:44:00,26.9,12.9,28.11,ENE,68,0.0,0.0,51,0.00,,,0.00,WSDL version 420,2013-12-19 08:44:00,
2013-12-19 03:49:00,27.0,13.0,28.11,ENE,68,1.5,1.6,51,0.00,,,0.00,WSDL version 420,2013-12-19 08:49:00,
2013-12-19 03:54:00,27.1,13.1,28.11,ENE,68,1.1,1.6,51,0.00,,,0.00,WSDL version 420,2013-12-19 08:54:00,
2013-12-19 03:59:00,27.2,13.2,28.11,ENE,68,0.0,1.1,51,0.00,,,0.00,WSDL version 420,2013-12-19 08:59:00,
2013-12-19 04:04:00,26.8,12.8,28.11,ENE,68,2.0,2.0,51,0.00,,,0.00,WSDL version 420,2013-12-19 09:04:00,
2013-12-19 04:09:00,26.7,12.7,28.11,NNE,23,1.3,2.0,51,0.00,,,0.00,WSDL version 420,2013-12-19 09:09:00,
2013-12-19 04:14:00,27.0,13.0,28.11,NNE,23,0.0,2.0,51,0.00,,,0.00,WSDL version 420,2013-12-19 09:14:00,
2013-12-19 04:19:00,26.9,12.9,28.11,NNE,23,0.0,1.1,51,0.00,,,0.00,WSDL version 420,2013-12-19 09:19:00,
2013-12-19 04:24:00,26.6,12.6,28.11,ENE,60,0.7,1.1,51,0.00,,,0.00,WSDL version 420,2013-12-19 09:24:00,
2013-12-19 04:29:00,26.7,12.7,28.11,ENE,68,0.9,1.3,51,0.00,,,0.00,WSDL version 420,2013-12-19 09:29:00,
2013-12-19 04:34:00,26.8,12.8,28.11,ENE,68,0.9,1.3,51,0.00,,,0.00,WSDL version 420,2013-12-19 09:34:00,
2013-12-19 04:39:00,27.0,13.0,28.11,NE,45,0.0,1.6,51,0.00,,,0.00,WSDL version 420,2013-12-19 09:39:00,
2013-12-19 04:44:00,27.1,13.1,28.11,ENE,68,0.0,1.6,51,0.00,,,0.00,WSDL version 420,2013-12-19 09:44:00,
2013-12-19 04:49:00,27.1,13.0,28.11,ENE,68,0.0,0.0,51,0.00,,,0.00,WSDL version 420,2013-12-19 09:49:00,
2013-12-19 04:54:00,27.0,13.0,28.11,ENE,68,0.0,0.0,51,0.00,,,0.00,WSDL version 420,2013-12-19 09:54:00,
2013-12-19 04:59:00,27.1,13.1,28.11,NNE,23,0.4,1.3,51,0.00,,,0.00,WSDL version 420,2013-12-19 09:59:00,
2013-12-19 05:04:00,27.0,13.0,28.11,NE,39,0.0,1.3,51,0.00,,,0.00,WSDL version 420,2013-12-19 10:04:00,
2013-12-19 05:09:00,27.0,13.0,28.11,ENE,68,1.3,1.6,51,0.00,,,0.00,WSDL version 420,2013-12-19 10:09:00,
2013-12-19 05:14:00,27.0,13.0,28.11,ENE,68,1.1,1.6,51,0.00,,,0.00,WSDL version 420,2013-12-19 10:14:00,
2013-12-19 05:19:00,27.0,13.0,28.11,ENE,68,1.3,1.6,51,0.00,,,0.00,WSDL version 420,2013-12-19 10:19:00,
2013-12-19 05:24:00,26.9,12.9,28.11,ENE,68,0.0,1.6,51,0.00,,,0.00,WSDL version 420,2013-12-19 10:24:00,
2013-12-19 05:29:00,27.0,13.0,28.11,ENE,68,0.0,0.9,51,0.00,,,0.00,WSDL version 420,2013-12-19 10:29:00,
2013-12-19 05:35:00,27.1,13.1,28.11,ENE,68,1.3,1.3,51,0.00,,,0.00,WSDL version 420,2013-12-19 10:35:00,
2013-12-19 05:39:00,27.1,13.1,28.11,ENE,68,1.1,1.6,51,0.00,,,0.00,WSDL version 420,2013-12-19 10:39:00,
2013-12-19 05:44:00,27.0,13.0,28.11,ESE,113,0.0,1.6,51,0.00,,,0.00,WSDL version 420,2013-12-19 10:44:00,
2013-12-19 05:49:00,27.0,13.0,28.11,ESE,113,0.2,0.9,51,0.00,,,0.00,WSDL version 420,2013-12-19 10:49:00,
2013-12-19 05:54:00,26.9,12.9,28.11,ESE,113,0.0,0.9,51,0.00,,,0.00,WSDL version 420,2013-12-19 10:54:00,
2013-12-19 05:59:00,27.0,13.0,28.11,NNE,23,1.1,1.1,51,0.00,,,0.00,WSDL version 420,2013-12-19 10:59:00,
2013-12-19 06:04:00,27.0,13.0,28.11,East,90,0.7,1.1,51,0.00,,,0.00,WSDL version 420,2013-12-19 11:04:00,
2013-12-19 06:09:00,26.5,12.6,28.11,NNE,23,0.0,1.6,52,0.00,,,0.00,WSDL version 420,2013-12-19 11:09:00,
2013-12-19 06:14:00,26.4,12.8,28.11,NNE,23,1.3,1.6,52,0.00,,,0.00,WSDL version 420,2013-12-19 11:14:00,
2013-12-19 06:19:00,26.2,12.7,28.11,NNE,23,1.1,1.3,52,0.00,,,0.00,WSDL version 420,2013-12-19 11:19:00,
2013-12-19 06:24:00,26.6,13.0,28.11,NE,45,0.3,1.3,52,0.00,,,0.00,WSDL version 420,2013-12-19 11:24:00,
2013-12-19 06:30:00,26.9,13.3,28.11,ENE,68,1.2,1.3,52,0.00,,,0.00,WSDL version 420,2013-12-19 11:30:00,
2013-12-19 06:34:00,27.0,13.4,28.11,NE,45,1.3,2.0,52,0.00,,,0.00,WSDL version 420,2013-12-19 11:34:00,
2013-12-19 06:39:00,27.0,13.4,28.11,NNE,23,1.2,2.0,52,0.00,,,0.00,WSDL version 420,2013-12-19 11:39:00,
2013-12-19 06:44:00,27.0,13.4,28.11,ENE,68,0.4,1.6,52,0.00,,,0.00,WSDL version 420,2013-12-19 11:44:00,
2013-12-19 06:49:00,27.1,13.4,28.11,ENE,68,0.0,1.3,52,0.00,,,0.00,WSDL version 420,2013-12-19 11:49:00,
2013-12-19 06:54:00,26.9,13.3,28.14,ENE,68,0.0,0.9,52,0.00,,,0.00,WSDL version 420,2013-12-19 11:54:00,
2013-12-19 06:59:00,26.7,13.1,28.14,ENE,68,1.4,2.0,52,0.00,,,0.00,WSDL version 420,2013-12-19 11:59:00,
2013-12-19 07:04:00,27.0,13.4,28.14,ENE,68,0.9,2.0,52,0.00,,,0.00,WSDL version 420,2013-12-19 12:04:00,
2013-12-19 07:09:00,27.1,13.5,28.14,East,90,0.9,1.3,52,0.00,,,0.00,WSDL version 420,2013-12-19 12:09:00,
2013-12-19 07:14:00,27.0,13.4,28.14,NNE,23,1.4,1.6,52,0.00,,,0.00,WSDL version 420,2013-12-19 12:14:00,
2013-12-19 07:19:00,26.8,13.2,28.14,ENE,68,1.2,1.6,52,0.00,,,0.00,WSDL version 420,2013-12-19 12:19:00,
2013-12-19 07:24:00,26.5,12.9,28.14,ENE,68,1.0,1.3,52,0.00,,,0.00,WSDL version 420,2013-12-19 12:24:00,
2013-12-19 07:29:00,26.7,13.1,28.14,ENE,68,0.9,1.1,52,0.00,,,0.00,WSDL version 420,2013-12-19 12:29:00,
2013-12-19 07:34:00,26.5,13.0,28.14,ENE,68,1.5,1.6,52,0.00,,,0.00,WSDL version 420,2013-12-19 12:34:00,
2013-12-19 07:39:00,26.7,13.1,28.14,ENE,68,1.0,1.6,52,0.00,,,0.00,WSDL version 420,2013-12-19 12:39:00,
2013-12-19 07:45:00,26.8,13.2,28.14,ENE,68,0.0,1.3,52,0.00,,,0.00,WSDL version 420,2013-12-19 12:45:00,
2013-12-19 07:50:00,26.8,13.2,28.14,ENE,68,0.0,1.3,52,0.00,,,0.00,WSDL version 420,2013-12-19 12:50:00,
2013-12-19 07:55:00,26.9,13.3,28.14,ENE,68,0.0,0.0,52,0.00,,,0.00,WSDL version 420,2013-12-19 12:55:00,
2013-12-19 07:59:00,26.9,13.3,28.14,ENE,68,0.4,1.1,52,0.00,,,0.00,WSDL version 420,2013-12-19 12:59:00,
2013-12-19 08:05:00,27.1,13.5,28.14,ENE,68,1.2,1.3,52,0.00,,,0.00,WSDL version 420,2013-12-19 13:05:00,
2013-12-19 08:10:00,27.4,13.8,28.14,ENE,68,0.0,1.3,52,0.00,,,0.00,WSDL version 420,2013-12-19 13:10:00,
2013-12-19 08:14:00,27.6,13.9,28.14,NNE,23,0.0,1.3,52,0.00,,,0.00,WSDL version 420,2013-12-19 13:14:00,
2013-12-19 08:20:00,27.7,14.0,28.14,ENE,68,1.0,1.3,52,0.00,,,0.00,WSDL version 420,2013-12-19 13:20:00,
2013-12-19 08:24:00,27.8,14.1,28.14,ENE,68,0.6,1.3,52,0.00,,,0.00,WSDL version 420,2013-12-19 13:24:00,
2013-12-19 08:29:00,28.2,14.5,28.14,East,90,0.0,1.1,52,0.00,,,0.00,WSDL version 420,2013-12-19 13:29:00,
2013-12-19 08:35:00,28.0,14.4,28.14,NE,45,1.5,2.0,52,0.00,,,0.00,WSDL version 420,2013-12-19 13:35:00,
2013-12-19 08:39:00,28.4,14.6,28.14,NNE,23,0.0,2.0,51,0.00,,,0.00,WSDL version 420,2013-12-19 13:39:00,
2013-12-19 08:44:00,28.6,14.5,28.14,NNE,23,0.0,0.0,51,0.00,,,0.00,WSDL version 420,2013-12-19 13:44:00,
2013-12-19 08:49:00,28.8,14.7,28.14,NNE,23,0.0,0.0,51,0.00,,,0.00,WSDL version 420,2013-12-19 13:49:00,
2013-12-19 08:55:00,29.2,15.1,28.14,NNE,23,0.0,0.0,51,0.00,,,0.00,WSDL version 420,2013-12-19 13:55:00,
2013-12-19 08:59:00,29.7,15.6,28.14,ENE,68,0.0,0.0,51,0.00,,,0.00,WSDL version 420,2013-12-19 13:59:00,
2013-12-19 09:04:00,30.1,16.0,28.14,ENE,68,0.0,0.0,51,0.00,,,0.00,WSDL version 420,2013-12-19 14:04:00,
2013-12-19 09:10:00,30.7,16.1,28.14,ESE,113,0.0,0.0,50,0.00,,,0.00,WSDL version 420,2013-12-19 14:10:00,
2013-12-19 09:19:00,31.7,17.0,28.14,East,98,2.2,2.7,50,0.00,,,0.00,WSDL version 420,2013-12-19 14:19:00,
2013-12-19 09:24:00,32.4,15.8,28.14,East,90,2.0,2.7,50,0.00,,,0.00,WSDL version 420,2013-12-19 14:24:00,
2013-12-19 09:29:00,32.8,16.2,28.14,NE,34,0.7,2.7,50,0.00,,,0.00,WSDL version 420,2013-12-19 14:29:00,
2013-12-19 09:34:00,33.3,16.6,28.14,ENE,68,0.0,2.7,50,0.00,,,0.00,WSDL version 420,2013-12-19 14:34:00,
2013-12-19 09:39:00,33.8,17.1,28.14,ENE,68,0.0,0.0,50,0.00,,,0.00,WSDL version 420,2013-12-19 14:39:00,
2013-12-19 09:44:00,34.5,17.3,28.14,ENE,68,0.0,0.0,49,0.00,,,0.00,WSDL version 420,2013-12-19 14:44:00,
2013-12-19 09:49:00,35.2,17.6,28.14,ENE,68,0.0,0.0,48,0.00,,,0.00,WSDL version 420,2013-12-19 14:49:00,
2013-12-19 09:54:00,35.8,17.7,28.14,East,79,0.4,0.9,47,0.00,,,0.00,WSDL version 420,2013-12-19 14:54:00,
2013-12-19 09:59:00,36.2,17.9,28.14,East,90,2.1,2.7,47,0.00,,,0.00,WSDL version 420,2013-12-19 14:59:00,
2013-12-19 10:04:00,36.9,18.5,28.14,ENE,68,1.0,2.7,47,0.00,,,0.00,WSDL version 420,2013-12-19 15:04:00,
2013-12-19 10:09:00,37.7,18.8,28.14,East,90,2.0,2.0,46,0.00,,,0.00,WSDL version 420,2013-12-19 15:09:00,
2013-12-19 10:14:00,38.2,19.0,28.14,East,90,2.0,2.0,45,0.00,,,0.00,WSDL version 420,2013-12-19 15:14:00,
2013-12-19 10:19:00,38.6,18.9,28.14,East,79,1.8,2.2,44,0.00,,,0.00,WSDL version 420,2013-12-19 15:19:00,
2013-12-19 10:24:00,39.0,19.0,28.14,East,90,2.3,2.5,44,0.00,,,0.00,WSDL version 420,2013-12-19 15:24:00,
2013-12-19 10:29:00,39.9,19.4,28.14,ESE,113,0.0,2.5,43,0.00,,,0.00,WSDL version 420,2013-12-19 15:29:00,
2013-12-19 10:34:00,40.3,19.2,28.14,ESE,113,0.0,2.5,42,0.00,,,0.00,WSDL version 420,2013-12-19 15:34:00,
2013-12-19 10:39:00,40.8,19.3,28.14,South,188,0.0,0.0,41,0.00,,,0.00,WSDL version 420,2013-12-19 15:39:00,
2013-12-19 10:44:00,41.3,19.4,28.14,East,90,0.0,0.0,41,0.00,,,0.00,WSDL version 420,2013-12-19 15:44:00,
2013-12-19 10:49:00,41.8,19.9,28.14,SE,146,0.0,0.0,41,0.00,,,0.00,WSDL version 420,2013-12-19 15:49:00,
2013-12-19 10:54:00,42.7,19.9,28.14,SE,128,0.0,0.9,39,0.00,,,0.00,WSDL version 420,2013-12-19 15:54:00,
2013-12-19 11:00:00,43.1,19.8,28.14,WSW,248,2.0,2.2,39,0.00,,,0.00,WSDL version 420,2013-12-19 16:00:00,
2013-12-19 11:04:00,43.7,20.4,28.14,ESE,113,0.0,2.2,39,0.00,,,0.00,WSDL version 420,2013-12-19 16:04:00,
2013-12-19 11:09:00,43.7,19.8,28.14,East,90,0.9,2.5,38,0.00,,,0.00,WSDL version 420,2013-12-19 16:09:00,
2013-12-19 11:14:00,44.3,20.3,28.14,South,180,1.6,2.5,38,0.00,,,0.00,WSDL version 420,2013-12-19 16:14:00,
2013-12-19 11:19:00,44.6,20.2,28.14,East,83,0.7,2.5,37,0.00,,,0.00,WSDL version 420,2013-12-19 16:19:00,
2013-12-19 11:25:00,45.1,20.4,28.14,North,360,1.3,2.5,37,0.00,,,0.00,WSDL version 420,2013-12-19 16:25:00,
2013-12-19 11:29:00,45.4,20.2,28.14,West,263,2.0,2.7,36,0.00,,,0.00,WSDL version 420,2013-12-19 16:29:00,
2013-12-19 11:34:00,45.5,19.7,28.14,NW,308,2.5,2.9,35,0.00,,,0.00,WSDL version 420,2013-12-19 16:34:00,
2013-12-19 11:39:00,45.7,19.2,28.14,NNE,23,2.9,2.9,34,0.00,,,0.00,WSDL version 420,2013-12-19 16:39:00,
2013-12-19 11:44:00,46.2,19.7,28.14,NNE,14,1.5,2.9,34,0.00,,,0.00,WSDL version 420,2013-12-19 16:44:00,
2013-12-19 11:50:00,46.8,19.9,28.14,WSW,248,1.3,2.7,34,0.00,,,0.00,WSDL version 420,2013-12-19 16:50:00,
2013-12-19 11:54:00,47.0,20.1,28.14,SW,233,0.7,2.7,34,0.00,,,0.00,WSDL version 420,2013-12-19 16:54:00,
2013-12-19 11:59:00,47.4,19.7,28.14,WSW,248,0.9,1.3,33,0.00,,,0.00,WSDL version 420,2013-12-19 16:59:00,
2013-12-19 12:04:00,47.7,20.0,28.14,NW,315,1.3,2.9,33,0.00,,,0.00,WSDL version 420,2013-12-19 17:04:00,
2013-12-19 12:09:00,48.0,19.6,28.11,SW,225,1.0,2.9,32,0.00,,,0.00,WSDL version 420,2013-12-19 17:09:00,
2013-12-19 12:14:00,48.7,20.2,28.11,West,270,1.8,2.5,32,0.00,,,0.00,WSDL version 420,2013-12-19 17:14:00,
2013-12-19 12:19:00,49.3,21.0,28.11,ENE,68,3.0,3.4,33,0.00,,,0.00,WSDL version 420,2013-12-19 17:19:00,
2013-12-19 12:24:00,49.9,21.2,28.11,SSW,203,0.9,3.4,32,0.00,,,0.00,WSDL version 420,2013-12-19 17:24:00,
2013-12-19 12:29:00,50.1,20.9,28.11,ESE,113,1.2,2.2,31,0.00,,,0.00,WSDL version 420,2013-12-19 17:29:00,
2013-12-19 12:34:00,50.6,21.1,28.11,SSW,203,1.2,2.5,31,0.00,,,0.00,WSDL version 420,2013-12-19 17:34:00,
2013-12-19 12:39:00,51.1,21.1,28.11,WSW,248,1.2,2.5,30,0.00,,,0.00,WSDL version 420,2013-12-19 17:39:00,
2013-12-19 12:44:00,50.7,20.4,28.11,SSW,203,0.9,2.5,30,0.00,,,0.00,WSDL version 420,2013-12-19 17:44:00,
2013-12-19 12:49:00,50.4,20.1,28.11,SW,218,1.0,1.1,30,0.00,,,0.00,WSDL version 420,2013-12-19 17:49:00,
2013-12-19 12:54:00,50.2,20.0,28.11,WSW,248,1.0,2.0,30,0.00,,,0.00,WSDL version 420,2013-12-19 17:54:00,
2013-12-19 12:59:00,50.5,20.3,28.11,SSE,158,1.7,2.0,30,0.00,,,0.00,WSDL version 420,2013-12-19 17:59:00,
2013-12-19 13:04:00,50.7,20.4,28.11,ESE,113,0.7,2.0,30,0.00,,,0.00,WSDL version 420,2013-12-19 18:04:00,
2013-12-19 13:09:00,51.3,20.9,28.08,WNW,287,2.1,2.7,30,0.00,,,0.00,WSDL version 420,2013-12-19 18:09:00,
2013-12-19 13:14:00,51.7,20.8,28.08,NW,326,1.8,2.7,29,0.00,,,0.00,WSDL version 420,2013-12-19 18:14:00,
2013-12-19 13:19:00,51.6,20.7,28.08,South,180,0.6,2.5,29,0.00,,,0.00,WSDL version 420,2013-12-19 18:19:00,
2013-12-19 13:24:00,51.7,20.5,28.08,NE,45,1.1,1.6,29,0.00,,,0.00,WSDL version 420,2013-12-19 18:24:00,
2013-12-19 13:29:00,52.0,20.8,28.08,SSW,210,0.6,2.9,29,0.00,,,0.00,WSDL version 420,2013-12-19 18:29:00,
2013-12-19 13:35:00,52.1,20.8,28.08,WSW,248,0.0,2.9,29,0.00,,,0.00,WSDL version 420,2013-12-19 18:35:00,
2013-12-19 13:39:00,52.3,21.0,28.08,NNW,338,1.5,2.0,29,0.00,,,0.00,WSDL version 420,2013-12-19 18:39:00,
2013-12-19 13:44:00,52.2,20.9,28.08,SE,143,1.9,2.5,29,0.00,,,0.00,WSDL version 420,2013-12-19 18:44:00,
2013-12-19 13:49:00,52.8,21.5,28.08,SW,236,0.6,2.5,29,0.00,,,0.00,WSDL version 420,2013-12-19 18:49:00,
2013-12-19 13:54:00,53.3,21.3,28.08,South,188,0.3,2.0,28,0.00,,,0.00,WSDL version 420,2013-12-19 18:54:00,
2013-12-19 13:59:00,53.7,21.4,28.08,WSW,248,1.3,2.7,28,0.00,,,0.00,WSDL version 420,2013-12-19 18:59:00,
2013-12-19 14:05:00,53.9,21.6,28.08,NNE,23,0.0,2.7,28,0.00,,,0.00,WSDL version 420,2013-12-19 19:05:00,
2013-12-19 14:09:00,53.7,21.4,28.08,SE,141,0.6,2.5,28,0.00,,,0.00,WSDL version 420,2013-12-19 19:09:00,
2013-12-19 14:15:00,54.5,21.5,28.08,SSW,203,0.3,2.5,27,0.00,,,0.00,WSDL version 420,2013-12-19 19:15:00,
2013-12-19 14:19:00,54.6,21.3,28.08,SSW,203,2.7,3.6,27,0.00,,,0.00,WSDL version 420,2013-12-19 19:19:00,
2013-12-19 14:24:00,54.2,21.0,28.08,SSW,203,1.5,3.6,27,0.00,,,0.00,WSDL version 420,2013-12-19 19:24:00,
2013-12-19 14:29:00,54.3,21.0,28.08,SSW,203,1.1,2.2,27,0.00,,,0.00,WSDL version 420,2013-12-19 19:29:00,
2013-12-19 14:35:00,54.2,21.0,28.08,SSW,203,1.0,2.9,27,0.00,,,0.00,WSDL version 420,2013-12-19 19:35:00,
2013-12-19 14:39:00,54.0,20.8,28.08,SSW,203,2.2,2.9,27,0.00,,,0.00,WSDL version 420,2013-12-19 19:39:00,
2013-12-19 14:44:00,53.7,20.5,28.08,SW,225,0.5,2.7,27,0.00,,,0.00,WSDL version 420,2013-12-19 19:44:00,
2013-12-19 14:49:00,53.5,20.4,28.08,SE,135,0.9,2.5,27,0.00,,,0.00,WSDL version 420,2013-12-19 19:49:00,
2013-12-19 14:54:00,53.3,20.2,28.08,WNW,293,2.0,2.7,27,0.00,,,0.00,WSDL version 420,2013-12-19 19:54:00,
2013-12-19 14:59:00,53.2,20.1,28.08,South,191,0.8,2.7,27,0.00,,,0.00,WSDL version 420,2013-12-19 19:59:00,
2013-12-19 15:04:00,53.2,20.4,28.08,SW,233,1.5,1.6,28,0.00,,,0.00,WSDL version 420,2013-12-19 20:04:00,
2013-12-19 15:09:00,53.2,20.9,28.05,SSW,212,0.2,1.6,28,0.00,,,0.00,WSDL version 420,2013-12-19 20:09:00,
2013-12-19 15:14:00,53.2,20.9,28.05,South,186,2.0,2.9,28,0.00,,,0.00,WSDL version 420,2013-12-19 20:14:00,
2013-12-19 15:19:00,53.2,20.9,28.05,South,180,0.4,2.9,28,0.00,,,0.00,WSDL version 420,2013-12-19 20:19:00,
2013-12-19 15:24:00,53.1,20.8,28.05,SSW,203,0.0,1.3,28,0.00,,,0.00,WSDL version 420,2013-12-19 20:24:00,
2013-12-19 15:29:00,52.9,20.7,28.05,WSW,248,0.0,1.3,28,0.00,,,0.00,WSDL version 420,2013-12-19 20:29:00,
2013-12-19 15:34:00,52.9,20.7,28.05,NNW,338,1.0,1.6,28,0.00,,,0.00,WSDL version 420,2013-12-19 20:34:00,
2013-12-19 15:39:00,52.7,20.1,28.08,WSW,248,0.0,1.6,27,0.00,,,0.00,WSDL version 420,2013-12-19 20:39:00,
2013-12-19 15:44:00,52.4,20.3,28.08,WSW,248,0.0,0.9,28,0.00,,,0.00,WSDL version 420,2013-12-19 20:44:00,
2013-12-19 15:49:00,52.0,20.0,28.08,WSW,248,0.0,0.0,28,0.00,,,0.00,WSDL version 420,2013-12-19 20:49:00,
2013-12-19 15:54:00,51.8,19.7,28.08,WSW,248,0.0,0.0,28,0.00,,,0.00,WSDL version 420,2013-12-19 20:54:00,
2013-12-19 15:59:00,51.6,19.6,28.08,WSW,248,0.0,0.0,28,0.00,,,0.00,WSDL version 420,2013-12-19 20:59:00,
2013-12-19 16:04:00,51.4,19.4,28.08,WSW,248,0.0,0.0,28,0.00,,,0.00,WSDL version 420,2013-12-19 21:04:00,
2013-12-19 16:09:00,51.4,19.4,28.08,WSW,248,0.0,0.0,28,0.00,,,0.00,WSDL version 420,2013-12-19 21:09:00,
2013-12-19 16:14:00,51.4,19.4,28.08,WSW,248,0.0,0.0,28,0.00,,,0.00,WSDL version 420,2013-12-19 21:14:00,
2013-12-19 16:19:00,51.3,19.3,28.08,WSW,248,0.0,0.0,28,0.00,,,0.00,WSDL version 420,2013-12-19 21:19:00,
2013-12-19 16:24:00,50.9,19.0,28.08,NW,315,0.0,0.0,28,0.00,,,0.00,WSDL version 420,2013-12-19 21:24:00,
2013-12-19 16:29:00,50.8,18.9,28.08,NW,315,0.0,0.0,28,0.00,,,0.00,WSDL version 420,2013-12-19 21:29:00,
2013-12-19 16:34:00,50.4,18.5,28.08,NW,315,0.0,0.0,28,0.00,,,0.00,WSDL version 420,2013-12-19 21:34:00,
2013-12-19 16:39:00,50.3,18.4,28.08,NW,315,0.0,0.0,28,0.00,,,0.00,WSDL version 420,2013-12-19 21:39:00,
2013-12-19 16:44:00,49.9,18.7,28.08,NW,315,0.0,0.0,29,0.00,,,0.00,WSDL version 420,2013-12-19 21:44:00,
2013-12-19 16:50:00,49.6,18.6,28.08,NW,315,0.0,0.0,29,0.00,,,0.00,WSDL version 420,2013-12-19 21:50:00,
2013-12-19 16:59:00,49.0,19.7,28.08,ENE,75,1.1,2.0,31,0.00,,,0.00,WSDL version 420,2013-12-19 21:59:00,
2013-12-19 17:04:00,48.8,19.5,28.08,ENE,68,0.0,1.3,31,0.00,,,0.00,WSDL version 420,2013-12-19 22:04:00,
2013-12-19 17:09:00,48.6,20.1,28.08,ENE,68,0.0,1.1,32,0.00,,,0.00,WSDL version 420,2013-12-19 22:09:00,
2013-12-19 17:14:00,48.2,20.1,28.08,ENE,68,0.0,0.0,33,0.00,,,0.00,WSDL version 420,2013-12-19 22:14:00,
2013-12-19 17:19:00,47.7,21.2,28.08,NNW,338,1.0,1.1,35,0.00,,,0.00,WSDL version 420,2013-12-19 22:19:00,
2013-12-19 17:24:00,47.3,21.7,28.08,NNW,338,0.7,1.1,36,0.00,,,0.00,WSDL version 420,2013-12-19 22:24:00,
2013-12-19 17:29:00,47.3,21.9,28.08,NNW,338,0.0,1.1,37,0.00,,,0.00,WSDL version 420,2013-12-19 22:29:00,
2013-12-19 17:34:00,46.9,22.0,28.08,NNW,338,0.0,0.0,37,0.00,,,0.00,WSDL version 420,2013-12-19 22:34:00,
2013-12-19 17:39:00,46.7,21.8,28.08,NNW,338,0.0,0.0,37,0.00,,,0.00,WSDL version 420,2013-12-19 22:39:00,
2013-12-19 17:44:00,46.2,21.8,28.08,North,360,0.0,0.0,38,0.00,,,0.00,WSDL version 420,2013-12-19 22:44:00,
2013-12-19 17:49:00,45.9,21.7,28.08,North,360,0.0,0.0,38,0.00,,,0.00,WSDL version 420,2013-12-19 22:49:00,
2013-12-19 17:54:00,45.4,21.3,28.08,ENE,68,0.0,0.0,38,0.00,,,0.00,WSDL version 420,2013-12-19 22:54:00,
2013-12-19 17:59:00,45.2,21.1,28.08,ESE,105,1.3,2.0,38,0.00,,,0.00,WSDL version 420,2013-12-19 22:59:00,
2013-12-19 18:04:00,45.1,21.0,28.08,North,360,0.3,2.0,38,0.00,,,0.00,WSDL version 420,2013-12-19 23:04:00,
2013-12-19 18:09:00,44.9,21.0,28.05,North,360,0.0,1.6,39,0.00,,,0.00,WSDL version 420,2013-12-19 23:09:00,
2013-12-19 18:14:00,44.6,21.2,28.05,North,360,0.0,0.0,39,0.00,,,0.00,WSDL version 420,2013-12-19 23:14:00,
2013-12-19 18:19:00,44.1,20.8,28.05,North,353,0.0,0.0,39,0.00,,,0.00,WSDL version 420,2013-12-19 23:19:00,
2013-12-19 18:24:00,43.8,20.4,28.05,NNE,28,1.1,1.6,39,0.00,,,0.00,WSDL version 420,2013-12-19 23:24:00,
2013-12-19 18:29:00,43.4,20.5,28.05,NNE,23,1.3,1.6,40,0.00,,,0.00,WSDL version 420,2013-12-19 23:29:00,
2013-12-19 18:34:00,43.2,20.2,28.05,NE,34,1.1,1.6,40,0.00,,,0.00,WSDL version 420,2013-12-19 23:34:00,
2013-12-19 18:39:00,42.9,20.3,28.05,NNE,23,1.5,1.6,40,0.00,,,0.00,WSDL version 420,2013-12-19 23:39:00,
2013-12-19 18:44:00,42.9,20.2,28.05,North,360,1.3,1.6,40,0.00,,,0.00,WSDL version 420,2013-12-19 23:44:00,
2013-12-19 18:49:00,42.4,20.2,28.05,North,360,1.1,1.6,41,0.00,,,0.00,WSDL version 420,2013-12-19 23:49:00,
2013-12-19 18:54:00,41.8,19.8,28.05,North,360,2.0,2.0,41,0.00,,,0.00,WSDL version 420,2013-12-19 23:54:00,
2013-12-19 18:59:00,41.5,19.6,28.05,East,90,0.0,2.0,41,0.00,,,0.00,WSDL version 420,2013-12-19 23:59:00,
2013-12-19 19:04:00,41.5,19.5,28.05,SSE,163,2.0,2.5,41,0.00,,,0.00,WSDL version 420,2013-12-20 00:04:00,
2013-12-19 19:10:00,41.1,19.2,28.05,NNE,23,0.9,2.5,41,0.00,,,0.00,WSDL version 420,2013-12-20 00:10:00,
2013-12-19 19:14:00,41.5,19.8,28.05,East,90,1.1,2.0,42,0.00,,,0.00,WSDL version 420,2013-12-20 00:14:00,
2013-12-19 19:19:00,41.4,20.0,28.05,NE,45,2.7,2.7,42,0.00,,,0.00,WSDL version 420,2013-12-20 00:19:00,
2013-12-19 19:24:00,40.9,19.6,28.05,ENE,68,1.6,2.7,42,0.00,,,0.00,WSDL version 420,2013-12-20 00:24:00,
2013-12-19 19:29:00,41.0,19.7,28.05,North,360,1.4,2.0,42,0.00,,,0.00,WSDL version 420,2013-12-20 00:29:00,
2013-12-19 19:34:00,40.5,19.2,28.05,North,360,1.5,1.6,42,0.00,,,0.00,WSDL version 420,2013-12-20 00:34:00,
2013-12-19 19:40:00,40.5,19.5,28.05,North,353,1.2,1.6,43,0.00,,,0.00,WSDL version 420,2013-12-20 00:40:00,
2013-12-19 19:44:00,40.3,19.4,28.05,NNW,338,1.3,1.3,43,0.00,,,0.00,WSDL version 420,2013-12-20 00:44:00,
2013-12-19 19:49:00,40.4,19.3,28.05,NNW,338,1.1,1.3,42,0.00,,,0.00,WSDL version 420,2013-12-20 00:49:00,
2013-12-19 19:54:00,40.4,19.7,28.05,North,360,0.0,1.3,43,0.00,,,0.00,WSDL version 420,2013-12-20 00:54:00,
2013-12-19 19:59:00,40.2,19.5,28.05,North,360,0.0,1.3,43,0.00,,,0.00,WSDL version 420,2013-12-20 00:59:00,
2013-12-19 20:04:00,40.2,19.5,28.05,North,360,0.0,0.0,43,0.00,,,0.00,WSDL version 420,2013-12-20 01:04:00,
2013-12-19 20:09:00,40.2,19.5,28.05,North,360,0.0,0.0,43,0.00,,,0.00,WSDL version 420,2013-12-20 01:09:00,
2013-12-19 20:14:00,40.5,19.7,28.05,East,98,1.8,2.0,43,0.00,,,0.00,WSDL version 420,2013-12-20 01:14:00,
2013-12-19 20:19:00,40.5,19.8,28.05,ESE,105,2.0,2.2,43,0.00,,,0.00,WSDL version 420,2013-12-20 01:19:00,
2013-12-19 20:25:00,40.6,19.7,28.05,East,90,2.0,2.2,42,0.00,,,0.00,WSDL version 420,2013-12-20 01:25:00,
2013-12-19 20:31:00,40.5,19.2,28.05,ENE,63,1.6,2.5,42,0.00,,,0.00,WSDL version 420,2013-12-20 01:31:00,
2013-12-19 20:36:00,40.5,19.2,28.05,NNE,23,1.3,3.1,42,0.00,,,0.00,WSDL version 420,2013-12-20 01:36:00,
2013-12-19 20:41:00,40.3,19.4,28.05,North,11,1.5,3.1,43,0.00,,,0.00,WSDL version 420,2013-12-20 01:41:00,
2013-12-19 20:46:00,40.3,19.6,28.05,NNE,23,1.0,1.6,43,0.00,,,0.00,WSDL version 420,2013-12-20 01:46:00,
2013-12-19 20:51:00,40.4,19.7,28.05,NNE,23,0.0,1.3,43,0.00,,,0.00,WSDL version 420,2013-12-20 01:51:00,
2013-12-19 20:56:00,40.5,19.7,28.05,NNE,23,0.0,0.0,43,0.00,,,0.00,WSDL version 420,2013-12-20 01:56:00,
2013-12-19 21:01:00,40.4,19.7,28.05,NNE,23,0.0,0.0,43,0.00,,,0.00,WSDL version 420,2013-12-20 02:01:00,
2013-12-19 21:06:00,40.3,19.6,28.05,North,360,0.0,0.0,43,0.00,,,0.00,WSDL version 420,2013-12-20 02:06:00,
2013-12-19 21:11:00,40.3,19.7,28.05,North,360,0.0,0.0,43,0.00,,,0.00,WSDL version 420,2013-12-20 02:11:00,
2013-12-19 21:16:00,40.1,19.8,28.05,North,360,0.0,0.0,43,0.00,,,0.00,WSDL version 420,2013-12-20 02:16:00,
2013-12-19 21:21:00,40.2,19.5,28.05,NNE,23,0.0,0.0,43,0.00,,,0.00,WSDL version 420,2013-12-20 02:21:00,
2013-12-19 21:26:00,40.1,19.4,28.05,NE,38,2.5,2.7,43,0.00,,,0.00,WSDL version 420,2013-12-20 02:26:00,
2013-12-19 21:31:00,40.0,19.4,28.05,NE,56,2.5,2.7,43,0.00,,,0.00,WSDL version 420,2013-12-20 02:31:00,
2013-12-19 21:36:00,39.9,19.2,28.05,NNE,15,2.5,2.9,43,0.00,,,0.00,WSDL version 420,2013-12-20 02:36:00,
2013-12-19 21:41:00,39.9,19.2,28.05,NE,45,2.0,3.1,43,0.00,,,0.00,WSDL version 420,2013-12-20 02:41:00,
2013-12-19 21:46:00,39.7,19.4,28.05,ENE,68,0.0,3.1,44,0.00,,,0.00,WSDL version 420,2013-12-20 02:46:00,
2013-12-19 21:51:00,39.7,19.6,28.05,ENE,68,0.0,2.0,44,0.00,,,0.00,WSDL version 420,2013-12-20 02:51:00,
2013-12-19 21:56:00,39.4,19.3,28.05,ENE,68,0.0,0.0,44,0.00,,,0.00,WSDL version 420,2013-12-20 02:56:00,
2013-12-19 22:01:00,39.6,19.5,28.05,ENE,68,0.0,0.0,44,-99.99,,,-99.99,WSDL version 420,2013-12-20 03:01:00,
2013-12-19 22:06:00,39.2,19.1,28.05,NNE,30,0.0,0.9,44,0.00,,,0.00,WSDL version 420,2013-12-20 03:06:00,
2013-12-19 22:11:00,39.0,19.3,28.05,NE,45,0.0,0.9,44,0.00,,,0.00,WSDL version 420,2013-12-20 03:11:00,
2013-12-19 22:16:00,39.3,19.2,28.05,ENE,68,0.0,0.0,44,0.00,,,0.00,WSDL version 420,2013-12-20 03:16:00,
2013-12-19 22:21:00,39.1,19.2,28.05,ENE,68,0.0,0.0,45,0.00,,,0.00,WSDL version 420,2013-12-20 03:21:00,
2013-12-19 22:26:00,38.8,19.3,28.02,NE,45,0.0,0.0,45,0.00,,,0.00,WSDL version 420,2013-12-20 03:26:00,
2013-12-19 22:31:00,38.7,19.2,28.02,NE,53,0.0,0.0,45,0.00,,,0.00,WSDL version 420,2013-12-20 03:31:00,
2013-12-19 22:36:00,38.4,19.3,28.02,ENE,68,0.0,0.0,46,0.00,,,0.00,WSDL version 420,2013-12-20 03:36:00,
2013-12-19 22:41:00,38.8,19.8,28.02,ENE,68,0.0,0.0,46,0.00,,,0.00,WSDL version 420,2013-12-20 03:41:00,
2013-12-19 22:46:00,38.8,19.8,28.02,ENE,68,0.0,0.0,46,0.00,,,0.00,WSDL version 420,2013-12-20 03:46:00,
2013-12-19 22:51:00,38.5,19.5,28.02,NE,38,0.0,0.0,46,0.00,,,0.00,WSDL version 420,2013-12-20 03:51:00,
2013-12-19 22:56:00,38.5,19.5,28.02,North,360,1.4,2.0,46,0.00,,,0.00,WSDL version 420,2013-12-20 03:56:00,
2013-12-19 23:01:00,38.5,19.5,28.02,NNE,23,0.4,2.0,46,0.00,,,0.00,WSDL version 420,2013-12-20 04:01:00,
2013-12-19 23:06:00,38.2,19.2,28.02,ENE,68,0.0,1.1,46,0.00,,,0.00,WSDL version 420,2013-12-20 04:06:00,
2013-12-19 23:11:00,38.5,20.0,28.02,East,90,0.0,0.0,47,0.00,,,0.00,WSDL version 420,2013-12-20 04:11:00,
2013-12-19 23:16:00,38.5,20.0,28.02,East,90,0.0,0.0,47,0.00,,,0.00,WSDL version 420,2013-12-20 04:16:00,
2013-12-19 23:21:00,38.0,19.2,28.02,East,90,1.3,1.3,47,0.00,,,0.00,WSDL version 420,2013-12-20 04:21:00,
2013-12-19 23:26:00,37.9,19.5,28.02,East,90,0.6,1.3,47,0.00,,,0.00,WSDL version 420,2013-12-20 04:26:00,
2013-12-19 23:31:00,37.9,19.5,28.02,East,90,0.0,1.1,47,0.00,,,0.00,WSDL version 420,2013-12-20 04:31:00,
2013-12-19 23:36:00,38.1,20.0,28.02,ESE,113,0.0,0.0,48,0.00,,,0.00,WSDL version 420,2013-12-20 04:36:00,
2013-12-19 23:41:00,38.2,19.9,28.02,ESE,113,0.0,0.0,47,0.00,,,0.00,WSDL version 420,2013-12-20 04:41:00,
2013-12-19 23:46:00,37.9,19.5,28.02,ESE,113,0.0,0.0,47,0.00,,,0.00,WSDL version 420,2013-12-20 04:46:00,
2013-12-19 23:51:00,37.6,19.6,28.02,ESE,113,0.0,0.0,48,0.00,,,0.00,WSDL version 420,2013-12-20 04:51:00,
2013-12-19 23:56:00,38.0,20.1,28.02,ESE,113,0.0,0.0,48,0.00,,,0.00,WSDL version 420,2013-12-20 04:56:00,